This is the latest recevied weather packets stored in our database for station/object KB1JLI. If no packets are shown the sender has not sent any weather packets the latest 1 day(s).
| Time | Temp. | Humidity | Pressure | Rain* | Wind** | Luminosity | Snow |
|---|---|---|---|---|---|---|---|
| 1778023206 | 22.78° C | 50% | 1007 hPa | 0 mm | 0.89 m/s, 208° | 15 W/m² | - |
| 1778022903 | 22.78° C | 50% | 1007.1 hPa | 0 mm | 3.13 m/s, 242° | 17 W/m² | - |
| 1778022602 | 22.78° C | 50% | 1007 hPa | 0 mm | 2.24 m/s, 209° | 22 W/m² | - |
| 1778022299 | 22.78° C | 50% | 1006.8 hPa | 0 mm | 0.89 m/s, 358° | 27 W/m² | - |
| 1778021995 | 22.78° C | 50% | 1006.8 hPa | 0 mm | 1.34 m/s, 176° | 32 W/m² | - |
| 1778021692 | 23.33° C | 49% | 1006.8 hPa | 0 mm | 1.79 m/s, 189° | 36 W/m² | - |
| 1778021388 | 23.33° C | 49% | 1006.7 hPa | 0 mm | 0.89 m/s, 197° | 38 W/m² | - |
| 1778021085 | 23.33° C | 48% | 1006.6 hPa | 0 mm | 4.47 m/s, 212° | 44 W/m² | - |
| 1778020782 | 23.33° C | 48% | 1006.5 hPa | 0 mm | 1.79 m/s, 203° | 52 W/m² | - |
| 1778020479 | 23.89° C | 48% | 1006.3 hPa | 0 mm | 3.58 m/s, 196° | 57 W/m² | - |
| 1778020175 | 23.89° C | 47% | 1006.3 hPa | 0 mm | 2.24 m/s, 182° | 63 W/m² | - |
| 1778019872 | 23.89° C | 47% | 1006 hPa | 0 mm | 0.89 m/s, 204° | 66 W/m² | - |
| 1778019568 | 23.89° C | 47% | 1005.9 hPa | 0 mm | 1.34 m/s, 204° | 72 W/m² | - |
| 1778019265 | 23.89° C | 47% | 1005.8 hPa | 0 mm | 0.89 m/s, 210° | 68 W/m² | - |
| 1778018962 | 23.89° C | 47% | 1005.9 hPa | 0 mm | 1.79 m/s, 108° | 65 W/m² | - |
| 1778018659 | 23.89° C | 46% | 1005.8 hPa | 0 mm | 4.02 m/s, 257° | 62 W/m² | - |
| 1778018357 | 24.44° C | 46% | 1006 hPa | 0 mm | 1.34 m/s, 340° | 61 W/m² | - |
| 1778018055 | 24.44° C | 46% | 1005.8 hPa | 0 mm | 0.89 m/s, 120° | 61 W/m² | - |
| 1778017753 | 25° C | 45% | 1005.8 hPa | 0 mm | 1.34 m/s, 3° | 75 W/m² | - |
| 1778017450 | 25° C | 45% | 1005.9 hPa | 0 mm | 1.79 m/s, 151° | 71 W/m² | - |
| 1778017147 | 25° C | 44% | 1005.8 hPa | 0 mm | 1.79 m/s, 190° | 59 W/m² | - |
| 1778016845 | 25.56° C | 43% | 1006.1 hPa | 0 mm | 0.89 m/s, 217° | 58 W/m² | - |
| 1778016540 | 25.56° C | 43% | 1005.7 hPa | 0 mm | 4.02 m/s, 246° | 65 W/m² | - |
| 1778016238 | 25.56° C | 42% | 1005.7 hPa | 0 mm | 4.92 m/s, 184° | 66 W/m² | - |
| 1778015934 | 26.11° C | 42% | 1005.6 hPa | 0 mm | 2.68 m/s, 229° | 68 W/m² | - |
* Rain latest hour (hover to see other rain measurements)
** Current wind speed in m/s (hover to see current wind gust speed)